OneWeb SL0594

operational
NORAD ID: 54660 Int'l Des: 2022-166 Owner: ONEWEBN Country: UK Constellation: oneweb
LEOCIRCULARPOLARONEWEB_TYPE

About OneWeb SL0594

Description loading...

Live Position

Loading 3D Globe...

Upcoming Passes

Altitude History

Altitude vs Time

uPlot chart will show altitude changes over time

Two-Line Element Set

1 54660U 22166U 25298.46909578 .00000358 00000-0 83631-3 0 9992
2 54660 87.9167 290.8281 0001898 90.0916 270.0435 13.21824739140558
Epoch: Oct 25, 2025 • Age: 14 hours

Current Status

Altitude 1198.0 km
Velocity 7.25 km/s
Sub-Earth Point -49.24°S, 61.49°E
Launch Date Dec 8, 2022
Age 2.8 years
Type internet

Technical Details

Classification Payload
Mass 148.00 kg
Dry Mass 140.00 kg
Total Mass 148.00 kg
Length 1.30 m
Diameter 1.00 m
Span 5.00 m
Shape Trapezoid+2 pan
Manufacturer ONEWUS
Bus Type ARROW
Phase Status In Orbit
Owner/State ONEWEBN/UK

Large Constellations

Loading constellations...